Connaught Arpt, Ireland

2:12 PM GMT on February 22, 2017 (GMT +0000)
Connaught Arpt

Weather History for 03973 - March, 2014

Change the Weather History Date:

Wednesday, March 26, 2014

  Actual Average Record
Temperature  
Mean Temperature 42 °F -  
Max Temperature 48 °F - - ()
Min Temperature 36 °F - - ()
Degree Days  
Heating Degree Days 23    
Moisture  
Dew Point 38 °F    
Average Humidity 78    
Maximum Humidity 100    
Minimum Humidity 53    
Precipitation  
Precipitation 0.00 in - - ()
Sea Level Pressure  
Sea Level Pressure 30.24 in    
Wind  
Wind Speed 10 mph ()    
Max Wind Speed 16 mph    
Max Gust Speed 25 mph    
Visibility 7.3 miles    
Events Rain    
T = Trace of Precipitation, MM = Missing Value Source: Averaged Metar Reports

Daily Weather History Graph

Daily Weather History Graph

Search for Another Location

Airport or City:

Trip Planner

Search our weather history database for the weather conditions in past years. The results will help you decide how hot, cold, wet, or windy it might be!

Date:

Astronomy

Mar. 26, 2014 Rise Set
Actual Time 6:23 AM GMT 6:59 PM GMT
Civil Twilight 5:47 AM GMT 7:35 PM GMT
Nautical Twilight 5:05 AM GMT 8:17 PM GMT
Astronomical Twilight 4:20 AM GMT 9:03 PM GMT
Moon 4:01 AM GMT (3/26) 1:45 PM GMT (3/26)
Length of Visible Light 13h 47m
Length of Day
12h 36m
Waning Crescent, 23% of the Moon is Illuminated
Mar 26
Waning Crescent
Mar 30
New
Apr 7
First Quarter
Apr 15
Full
Apr 22
Last Quarter

Hourly Weather History & Observations

Time (GMT) Temp. Windchill Dew Point Humidity Pressure Visibility Wind Dir Wind Speed Gust Speed Precip Events Conditions
12:00 AM 39 °F - 38 °F 95% 30.29 in - NW 8.9 mph - -  
1:00 AM 38 °F - 38 °F 99% 30.30 in - NW 8.9 mph - -  
2:00 AM 38 °F - 37 °F 97% 30.30 in - NW 8.9 mph - -  
3:00 AM 38 °F - 37 °F 97% 30.30 in - NW 8.9 mph - -  
4:00 AM 38 °F - 37 °F 93% 30.29 in - NW 8.9 mph - -  
5:00 AM 38 °F - 37 °F 96% 30.30 in - NW 8.9 mph - -  
6:00 AM 37 °F - 36 °F 96% 30.32 in 11 mi NW 8.9 mph - -   Scattered Clouds
6:00 AM 37.4 °F 31.4 °F 35.6 °F 93% 30.27 in 6.2 mi NW 8.1 mph - N/A   Partly Cloudy
7:00 AM 38 °F - 37 °F 93% 30.32 in 16 mi NW 8.9 mph - -   Partly Cloudy
7:00 AM 37.4 °F 30.8 °F 37.4 °F 100% 30.27 in 6.2 mi NW 9.2 mph - N/A   Scattered Clouds
8:00 AM 40 °F - 39 °F 95% 30.31 in 19 mi NW 11.2 mph - -   Scattered Clouds
8:00 AM 39.2 °F 32.5 °F 39.2 °F 100% 30.27 in 6.2 mi NW 10.4 mph - N/A   Partly Cloudy
8:30 AM 41.0 °F 35.2 °F 39.2 °F 93% 30.27 in 6.2 mi NW 9.2 mph - N/A   Partly Cloudy
9:00 AM 43 °F - 41 °F 88% 30.31 in 22 mi NW 8.9 mph - -   Scattered Clouds
9:00 AM 42.8 °F 37.5 °F 41.0 °F 93% 30.27 in 6.2 mi NW 9.2 mph - N/A   Partly Cloudy
9:30 AM 44.6 °F 37.8 °F 39.2 °F 81% 30.27 in 6.2 mi NNW 15.0 mph - N/A   Scattered Clouds
10:00 AM 45 °F - 39 °F 71% 30.30 in 22 mi NNW 15.7 mph - -   Partly Cloudy
10:00 AM 44.6 °F 37.8 °F 39.2 °F 81% 30.27 in 6.2 mi NNW 15.0 mph - N/A   Scattered Clouds
10:30 AM 46.4 °F 39.8 °F 37.4 °F 71% 30.27 in 6.2 mi NNW 16.1 mph - N/A   Mostly Cloudy
11:00 AM 47 °F - 36 °F 56% 30.30 in 25 mi North 15.7 mph - -   Mostly Cloudy
11:00 AM 48.2 °F - 35.6 °F 62% 30.27 in 6.2 mi North 16.1 mph - N/A   Mostly Cloudy
11:30 AM 48.2 °F - 35.6 °F 62% 30.27 in 6.2 mi North 11.5 mph - N/A   Mostly Cloudy
12:00 PM 48 °F - 37 °F 54% 30.28 in 28 mi North 13.4 mph - -   Mostly Cloudy
12:00 PM 48.2 °F - 37.4 °F 66% 30.24 in 6.2 mi North 13.8 mph 25.3 mph N/A   Mostly Cloudy
12:30 PM 46.4 °F 40.4 °F 37.4 °F 71% 30.24 in 6.2 mi North 13.8 mph - N/A   Mostly Cloudy
1:00 PM 48 °F - 38 °F 60% 30.26 in 31 mi North 11.2 mph - - Rain Light Rain Showers
1:00 PM 48.2 °F - 39.2 °F 71% 30.24 in 6.2 mi North 11.5 mph - N/A   Mostly Cloudy
1:30 PM 46.4 °F 41.5 °F 37.4 °F 71% 30.21 in 6.2 mi North 10.4 mph - N/A   Mostly Cloudy
2:00 PM 48 °F - 37 °F 57% 30.24 in 31 mi North 11.2 mph - -   Mostly Cloudy
2:00 PM 48.2 °F - 37.4 °F 66% 30.21 in 6.2 mi North 11.5 mph - N/A   Mostly Cloudy
2:30 PM 48.2 °F - 37.4 °F 66% 30.21 in 6.2 mi NNW 16.1 mph - N/A   Mostly Cloudy
3:00 PM 48 °F - 36 °F 53% 30.21 in 31 mi NNW 15.7 mph - -   Partly Cloudy
3:00 PM 48.2 °F - 35.6 °F 62% 30.18 in 6.2 mi NNW 15.0 mph - N/A   Scattered Clouds
3:30 PM 48.2 °F - 37.4 °F 66% 30.18 in 6.2 mi NNW 12.7 mph - N/A   Scattered Clouds
4:00 PM 47 °F - 37 °F 58% 30.19 in 31 mi NNW 13.4 mph - -   Mostly Cloudy
4:00 PM 48.2 °F - 37.4 °F 66% 30.15 in 6.2 mi NNW 12.7 mph - N/A   Mostly Cloudy
4:30 PM 44.6 °F 38.1 °F 37.4 °F 76% 30.15 in 6.2 mi NNW 13.8 mph - N/A   Mostly Cloudy
5:00 PM 45 °F - 36 °F 61% 30.18 in 31 mi NNW 13.4 mph - -   Partly Cloudy
5:00 PM 44.6 °F 38.1 °F 35.6 °F 71% 30.15 in 6.2 mi NNW 13.8 mph - N/A   Scattered Clouds
6:00 PM 44 °F - 38 °F 73% 30.17 in 31 mi NNW 11.2 mph - -   Partly Cloudy
7:00 PM 43 °F - 37 °F 74% 30.16 in 31 mi North 8.9 mph - -   Scattered Clouds
8:00 PM 40 °F - 37 °F 86% 30.14 in - NNW 8.9 mph - -  
9:00 PM 40 °F - 37 °F 84% 30.12 in - NNW 11.2 mph - -  
10:00 PM 41 °F - 38 °F 85% 30.10 in - NNW 6.7 mph - -  
11:00 PM 40 °F - 39 °F 95% 30.08 in - North 4.5 mph - -